Location: Caltech
(34.1382°N, 118.1253°W)
Time: 12:12:28
(UTC-08:00)

Oscar 10/S400 - Visible Passes

Search period start: 18 December 2014 00:00
Search period end: 28 December 2014 00:00
Orbit: 3916 x 35531 km, 25.9° (Epoch: 18 December)

Date Brightness Start Highest point End Pass type
(mag) Time Alt. Az. Time Alt. Az. Time Alt. Az.
18 Dec ? 00:00:00 15° SW 23:59:30 15° SW 00:56:54 10° SW visible
18 Dec ? 06:12:04 10° SW 06:50:31 34° SSE 07:06:53 10° E visible
19 Dec ? 05:15:34 10° SW 20:27:34 33° SW 06:21:18 10° E visible
20 Dec ? 04:06:12 10° SSW 19:33:29 39° SW 05:35:26 10° ESE visible
20 Dec ? 17:48:10 10° W 18:38:33 44° SSW 04:48:58 10° ESE visible
21 Dec ? 17:02:34 10° W 17:44:36 49° SSW 04:01:32 10° ESE visible
22 Dec ? 16:17:33 10° W 16:52:35 54° SSW 03:12:30 10° SE visible
23 Dec ? 15:32:54 10° W 16:02:31 58° SSW 02:21:00 10° SE visible
24 Dec ? 14:48:28 10° W 15:14:04 62° SSW 01:25:38 10° SE visible
25 Dec ? 14:04:10 10° W 14:26:50 65° SSW 00:24:16 10° SE visible
26 Dec ? 13:19:54 10° W 13:40:29 68° S 23:12:30 10° SSE visible
27 Dec ? 12:35:35 10° W 12:54:47 70° S 14:56:27 10° ESE visible
